Regional Weather Roundup
Issued by NWS Northern Indiana

Home | Current Version | Previous Version | Graphics & Text | Print | Product List | Glossary On
Versions: 1 2 3 4 5 6 7 8 9 10 11 12 13 14 15 16 17 18 19 20 21 22 23 24 25 26 27 28 29 30 31 32 33 34 35 36 37 38 39 40 41 42 43 44 45 46 47 48 49 50
000
ASUS43 KIWX 150610
RWRIWX

KIWX WEATHER ROUNDUP
NATIONAL WEATHER SERVICE NORTHERN INDIANA
100 AM EST FRI DEC 15 2017

NOTE: "FAIR" INDICATES FEW OR NO CLOUDS BELOW 12,000 FEET WITH NO
SIGNIFICANT WEATHER AND/OR OBSTRUCTIONS TO VISIBILITY.

* THESE STATIONS ARE NOT UNDER NWS QUALITY CONTROL. THEY ALSO MAY NOT
  REPORT WEATHER SUCH AS PRECIPITATION OR FOG.

INZ001>027-150700-
NORTHERN INDIANA

CITY           SKY/WX    TMP DP  RH WIND       PRES   REMARKS
GARY*          MOCLDY    19  13  79 S3        30.04F
VALPARAISO     CLEAR     17  11  77 SW3       30.03F
6HR MIN TEMP:  17; 6HR MAX TEMP:  26;

MICHIGAN CITY* MOCLDY    19  10  68 SW7       30.02F WCI  10
LAPORTE*       CLOUDY   N/A N/A N/A CALM      30.03F
KNOX*          CLOUDY    18  14  86 SW3       30.03F
SOUTH BEND     MOCLDY    13  11  92 SW6       30.02F WCI   4
6HR MIN TEMP:  10; 6HR MAX TEMP:  20;

GOSHEN         CLOUDY    18  11  74 SW6       30.01F WCI  10
6HR MIN TEMP:  14; 6HR MAX TEMP:  21;

MONTICELLO*    CLEAR     20  15  78 CALM      30.04F
6HR MIN TEMP:  15; 6HR MAX TEMP:  25;

LOGANSPORT*    MOCLDY    23  18  80 CALM      30.05F
ROCHESTER*     CLOUDY    25  18  74 CALM      30.03F
WARSAW*        CLOUDY    21  12  68 SW3       30.03F
AUBURN*        CLOUDY    19  12  73 CALM      30.03F
FORT WAYNE     CLOUDY    21  15  78 S3        30.04F
6HR MIN TEMP:  17; 6HR MAX TEMP:  21;

HUNTINGTON*    CLOUDY    22  14  71 CALM      30.03F
6HR MIN TEMP:  19; 6HR MAX TEMP:  22;

MARION*        CLOUDY    22  15  75 S5        30.05F WCI  15
6HR MIN TEMP:  15; 6HR MAX TEMP:  63;


$$
INZ028>050-150700-
CENTRAL INDIANA

CITY           SKY/WX    TMP DP  RH WIND       PRES   REMARKS
LAFAYETTE      CLOUDY    21  15  78 W3        30.05F
6HR MIN TEMP:  21; 6HR MAX TEMP:  27;

KOKOMO*        CLOUDY    23  16  74 S3        30.04F
6HR MIN TEMP:  20; 6HR MAX TEMP:  24;

MUNCIE*        CLOUDY    23  12  62 S5        30.04F WCI  17
6HR MIN TEMP:  21; 6HR MAX TEMP:  25;

INDIANAPOLIS   CLOUDY    23  15  71 S6        30.05F WCI  16
6HR MIN TEMP:  22; 6HR MAX TEMP:  27;


$$
MIZ043>046-050>051-056>058-064>065-071>073-077>080-150700-
SOUTHWEST LOWER MICHIGAN

CITY           SKY/WX    TMP DP  RH WIND       PRES   REMARKS
BATTLE CREEK   CLOUDY    20  15  81 S9        29.98F WCI   9
6HR MIN TEMP:  19; 6HR MAX TEMP:  20; 6HR PCP: TRACE;

BENTON HARBOR  CLOUDY    22  15  75 SE3       30.00F
6HR MIN TEMP:  19; 6HR MAX TEMP:  25;

COLDWATER*     CLOUDY    16  11  80 SW3       30.00F
6HR MIN TEMP:  13; 6HR MAX TEMP:  20;

HILLSDALE*     CLOUDY    14   7  73 SW3       29.98F
HOLLAND        CLOUDY    21  17  84 S6        29.98F WCI  13
6HR MIN TEMP:  21; 6HR MAX TEMP:  25;

GRAND RAPIDS   CLOUDY    20  16  84 S7        29.97F WCI  11
6HR MIN TEMP:  19; 6HR MAX TEMP:  21; 6HR PCP: TRACE;

KALAMAZOO      CLOUDY    20  15  81 SW10      29.99F WCI   9
6HR MIN TEMP:  18; 6HR MAX TEMP:  21; 6HR PCP: TRACE;

STURGIS*       CLOUDY    15  12  87 CALM      29.99F
6HR MIN TEMP:  14; 6HR MAX TEMP:  21;

THREE RIVERS*  CLOUDY    16  11  82 S5        30.01F WCI   9
6HR MIN TEMP:  16; 6HR MAX TEMP:  22;


$$
OHZ001>008-015>018-024>025-150700-
NORTHWEST OHIO

CITY           SKY/WX    TMP DP  RH WIND       PRES   REMARKS
WAUSEON*       CLOUDY     9   5  85 S5        30.03F WCI   0
DEFIANCE       CLOUDY    17   8  67 S3        30.04F
6HR MIN TEMP:  10; 6HR MAX TEMP:  17;

FINDLAY        CLOUDY    12   6  77 S5        30.04F WCI   4
6HR MIN TEMP:   6; 6HR MAX TEMP:  14;

TOLEDO EXPRESS CLOUDY    17   6  62 S6        30.04F WCI   9
6HR MIN TEMP:   4; 6HR MAX TEMP:  17;

TOLEDO METCALF CLOUDY     8   2  76 S3        30.06F
6HR MIN TEMP:   3; 6HR MAX TEMP:  12;

LIMA           CLOUDY    15  12  88 S6        30.03F WCI   6
6HR MIN TEMP:  12; 6HR MAX TEMP:  17;


$$
AND FOR LAKE MICHIGAN COASTAL AND OPEN LAKE BUOY OBSERVATIONS

STATION/POSITION TEMP    WIND        PRES    VSBY  WAVE
                 AIR SEA DIR/SP/G                  HT/PER
                 (F)     (DEG/KT/KT) (MB)    (MI)  (FT/S)
CALUMET HARBOR           200/  5/  6 1016.2F
MICHIGAN CITY     22     200/ 11/ 12   N/A
BURNS HARBOR      23     220/  5/  7 1017.6F
SAINT JOSEPH      28     260/  7/ 10 1015.9

$$
&&



USA.gov is the U.S. government's official web portal to all federal, state and local government web resources and services.